Location: Unspecified
(51.6250°N, 0.8230°E)
Time: 09:40:47
(UTC+01:00)

Resurs 1-4 Rocket - Visible Passes

Search period start: 21 October 2017 00:00
Search period end: 30 October 2017 23:00
Orbit: 801 x 813 km, 98.5° (Epoch: 20 October)

Date Brightness Start Highest point End Pass type
(mag) Time Alt. Az. Time Alt. Az. Time Alt. Az.
21 Oct 4.1 03:17:07 10° NNE 03:19:06 23° NNE 03:19:06 23° NNE visible
21 Oct 3.8 04:57:45 10° N 05:00:10 20° NNW 05:00:10 20° NNW visible
22 Oct 4.5 02:52:38 10° NNE 02:54:06 18° NNE 02:54:06 18° NNE visible
22 Oct 3.7 04:32:48 10° N 04:35:11 23° NNW 04:35:11 23° NNW visible
23 Oct 4.8 02:28:19 10° NNE 02:29:08 14° NE 02:29:08 14° NE visible
23 Oct 3.8 04:07:59 10° N 04:10:12 24° N 04:10:12 24° N visible
23 Oct 4.2 05:50:25 10° NNW 05:51:16 11° NW 05:51:16 11° NW visible
24 Oct 4.0 03:43:17 10° NNE 03:45:13 23° N 03:45:13 23° N visible
24 Oct 4.0 05:24:32 10° NNW 05:26:17 14° NW 05:26:17 14° NW visible
25 Oct 4.3 03:18:41 10° NNE 03:20:14 20° NNE 03:20:14 20° NNE visible
25 Oct 3.9 04:59:21 10° N 05:01:18 18° NNW 05:01:18 18° NNW visible
26 Oct 4.7 02:54:12 10° NNE 02:55:15 16° NNE 02:55:15 16° NNE visible
26 Oct 3.9 04:34:23 10° N 04:36:19 20° NNW 04:36:19 20° NNW visible
27 Oct 5.0 02:29:52 10° NNE 02:30:16 12° NNE 02:30:16 12° NNE visible
27 Oct 4.0 04:09:34 10° N 04:11:20 21° N 04:11:20 21° N visible
27 Oct 4.2 05:52:12 10° NNW 05:52:24 10° NW 05:52:24 10° NW visible
28 Oct 4.2 03:44:51 10° N 03:46:20 19° N 03:46:20 19° N visible
28 Oct 4.1 05:26:09 10° NNW 05:27:25 13° NNW 05:27:25 13° NNW visible
29 Oct 4.5 02:20:15 10° NNE 02:21:22 17° NNE 02:21:22 17° NNE visible
29 Oct 4.1 04:00:57 10° N 04:02:26 16° NNW 04:02:26 16° NNW visible
30 Oct 4.8 01:55:45 10° NNE 01:56:22 13° NNE 01:56:22 13° NNE visible
30 Oct 4.1 03:35:59 10° N 03:37:27 17° N 03:37:27 17° N visible
